When you browse on this site, cookies collect data to enhance your experience and personalize the content and advertising you see.
Visit our Privacy Policy to learn more. By continuing to use the site, you agree to this use of cookies and data.

Hourly Weather Khammam

Today, 21 September, Monday

Time Temperature Precipitation Wind Pressure Humidity
00:00 +26°C° 0.2 mm 3 mps 740 mmHg 94%
01:00 +26°C° 0.2 mm 3 mps 739 mmHg 94%
02:00 +26°C° 0.2 mm 3 mps 739 mmHg 94%
03:00 +26°C° 0.1 mm 3 mps 739 mmHg 94%
04:00 +26°C° 0.1 mm 2 mps 739 mmHg 95%
05:00 +26°C° 0.1 mm 2 mps 739 mmHg 95%
06:00 +26°C° 0.1 mm 2 mps 740 mmHg 92%
07:00 +27°C° 0.1 mm 2 mps 740 mmHg 90%
08:00 +28°C° 0.1 mm 2 mps 741 mmHg 88%
09:00 +28°C° 0.8 mm 2 mps 741 mmHg 88%
10:00 +28°C° 0.8 mm 3 mps 741 mmHg 89%
11:00 +28°C° 0.8 mm 3 mps 741 mmHg 89%
12:00 +28°C° 0.7 mm 3 mps 740 mmHg 89%
13:00 +28°C° 0.7 mm 3 mps 739 mmHg 90%
14:00 +28°C° 0.7 mm 2 mps 739 mmHg 90%
15:00 +28°C° 0.4 mm 2 mps 739 mmHg 91%
16:00 +27°C° 0.4 mm 3 mps 739 mmHg 92%
17:00 +27°C° 0.4 mm 3 mps 739 mmHg 92%
18:00 +27°C° 0.1 mm 3 mps 739 mmHg 93%
19:00 +27°C° 0.1 mm 3 mps 740 mmHg 93%
20:00 +26°C° 0.1 mm 3 mps 741 mmHg 93%
21:00 +26°C° 0 mm 3 mps 741 mmHg 93%
22:00 +26°C° 0 mm 3 mps 741 mmHg 93%
23:00 +26°C° 0 mm 3 mps 741 mmHg 93%

Tomorrow, 22 September, Tuesday

Time Temperature Precipitation Wind Pressure Humidity
00:00 +26°C° 0 mm 3 mps 740 mmHg 93%
01:00 +26°C° 0 mm 3 mps 740 mmHg 93%
02:00 +26°C° 0 mm 3 mps 740 mmHg 92%
03:00 +26°C° 0.1 mm 3 mps 740 mmHg 93%
04:00 +26°C° 0.1 mm 3 mps 740 mmHg 93%
05:00 +26°C° 0.1 mm 2 mps 740 mmHg 93%
06:00 +26°C° 0 mm 3 mps 741 mmHg 90%
07:00 +27°C° 0 mm 3 mps 741 mmHg 87%
08:00 +28°C° 0 mm 3 mps 742 mmHg 85%
09:00 +29°C° 0.2 mm 4 mps 742 mmHg 82%
10:00 +30°C° 0.2 mm 4 mps 742 mmHg 80%
11:00 +32°C° 0.2 mm 5 mps 741 mmHg 78%
12:00 +32°C° 1 mm 5 mps 741 mmHg 77%
13:00 +32°C° 1 mm 6 mps 740 mmHg 77%
14:00 +33°C° 1 mm 6 mps 739 mmHg 77%
15:00 +32°C° 1 mm 5 mps 739 mmHg 79%
16:00 +32°C° 1 mm 4 mps 739 mmHg 82%
17:00 +30°C° 1 mm 4 mps 739 mmHg 84%
18:00 +29°C° 0.8 mm 3 mps 740 mmHg 86%
19:00 +29°C° 0.8 mm 3 mps 741 mmHg 88%
20:00 +28°C° 0.8 mm 3 mps 741 mmHg 89%
21:00 +28°C° 0.6 mm 3 mps 742 mmHg 90%
22:00 +27°C° 0.6 mm 3 mps 742 mmHg 90%
23:00 +27°C° 0.6 mm 3 mps 742 mmHg 90%

Day after tomorrow, 23 September, Wednesday

Time Temperature Precipitation Wind Pressure Humidity
00:00 +27°C° 0 mm 3 mps 742 mmHg 90%
01:00 +27°C° 0 mm 3 mps 741 mmHg 90%
02:00 +26°C° 0 mm 3 mps 741 mmHg 90%
03:00 +26°C° 0 mm 3 mps 741 mmHg 89%
04:00 +26°C° 0 mm 3 mps 741 mmHg 89%
05:00 +25°C° 0 mm 3 mps 741 mmHg 89%
06:00 +26°C° 0 mm 4 mps 742 mmHg 86%
07:00 +28°C° 0 mm 4 mps 742 mmHg 83%
08:00 +29°C° 0 mm 5 mps 743 mmHg 81%
09:00 +30°C° 0 mm 5 mps 743 mmHg 78%
10:00 +32°C° 0 mm 5 mps 743 mmHg 75%
11:00 +33°C° 0 mm 5 mps 743 mmHg 73%
12:00 +33°C° 1 mm 5 mps 742 mmHg 73%
13:00 +33°C° 1 mm 5 mps 741 mmHg 73%
14:00 +34°C° 1 mm 5 mps 741 mmHg 73%
15:00 +33°C° 0.6 mm 4 mps 741 mmHg 76%
16:00 +32°C° 0.6 mm 4 mps 741 mmHg 78%
17:00 +31°C° 0.6 mm 3 mps 741 mmHg 81%
18:00 +30°C° 0.2 mm 3 mps 742 mmHg 82%
19:00 +29°C° 0.2 mm 3 mps 742 mmHg 83%
20:00 +29°C° 0.2 mm 3 mps 743 mmHg 83%
21:00 +28°C° 0.5 mm 3 mps 743 mmHg 85%
22:00 +28°C° 0.5 mm 3 mps 743 mmHg 86%
23:00 +27°C° 0.5 mm 3 mps 744 mmHg 88%

24 September, Thursday

Time Temperature Precipitation Wind Pressure Humidity
00:00 +27°C° 0.3 mm 3 mps 743 mmHg 88%
01:00 +27°C° 0.3 mm 3 mps 743 mmHg 88%
02:00 +27°C° 0.3 mm 3 mps 743 mmHg 88%
03:00 +27°C° 0 mm 3 mps 743 mmHg 89%
04:00 +27°C° 0 mm 3 mps 743 mmHg 89%
05:00 +27°C° 0 mm 2 mps 743 mmHg 90%
06:00 +27°C° 0 mm 3 mps 744 mmHg 87%
07:00 +28°C° 0 mm 3 mps 745 mmHg 84%
08:00 +29°C° 0 mm 4 mps 745 mmHg 82%
09:00 +30°C° 0 mm 4 mps 745 mmHg 79%
10:00 +32°C° 0 mm 4 mps 745 mmHg 77%
11:00 +33°C° 0 mm 4 mps 745 mmHg 74%
12:00 +33°C° 0 mm 4 mps 744 mmHg 73%
13:00 +34°C° 0 mm 4 mps 743 mmHg 71%
14:00 +34°C° 0 mm 4 mps 743 mmHg 70%
15:00 +33°C° 0 mm 4 mps 743 mmHg 73%
16:00 +33°C° 0 mm 3 mps 743 mmHg 76%
17:00 +31°C° 0 mm 3 mps 743 mmHg 79%
18:00 +30°C° 0 mm 2 mps 743 mmHg 80%
19:00 +30°C° 0 mm 2 mps 744 mmHg 80%
20:00 +29°C° 0 mm 2 mps 745 mmHg 81%
21:00 +29°C° 0 mm 2 mps 745 mmHg 81%
22:00 +28°C° 0 mm 2 mps 745 mmHg 81%
23:00 +28°C° 0 mm 2 mps 745 mmHg 82%

25 September, Friday

Time Temperature Precipitation Wind Pressure Humidity
00:00 +28°C° 0.2 mm 2 mps 744 mmHg 84%
01:00 +27°C° 0.2 mm 2 mps 744 mmHg 87%
02:00 +27°C° 0.2 mm 2 mps 744 mmHg 89%
03:00 +27°C° 0.2 mm 2 mps 744 mmHg 90%
04:00 +26°C° 0.2 mm 2 mps 744 mmHg 91%
05:00 +26°C° 0.2 mm 2 mps 744 mmHg 92%
06:00 +27°C° 0 mm 2 mps 744 mmHg 88%
07:00 +29°C° 0 mm 3 mps 745 mmHg 84%
08:00 +30°C° 0 mm 4 mps 746 mmHg 80%
09:00 +32°C° 0.2 mm 4 mps 745 mmHg 78%
10:00 +32°C° 0.2 mm 4 mps 745 mmHg 76%
11:00 +33°C° 0.2 mm 4 mps 745 mmHg 74%
12:00 +33°C° 1.3 mm 4 mps 744 mmHg 73%
13:00 +34°C° 1.3 mm 4 mps 743 mmHg 72%
14:00 +34°C° 1.3 mm 4 mps 743 mmHg 72%
15:00 +33°C° 0.9 mm 3 mps 742 mmHg 75%
16:00 +32°C° 0.9 mm 2 mps 742 mmHg 78%
17:00 +31°C° 0.9 mm 2 mps 742 mmHg 81%
18:00 +30°C° 0.4 mm 2 mps 743 mmHg 82%
19:00 +30°C° 0.4 mm 1 mps 744 mmHg 83%
20:00 +29°C° 0.4 mm 1 mps 744 mmHg 84%
21:00 +28°C° 1.5 mm 2 mps 744 mmHg 86%
22:00 +28°C° 1.5 mm 2 mps 744 mmHg 89%
23:00 +27°C° 1.5 mm 2 mps 744 mmHg 92%

26 September, Saturday

Time Temperature Precipitation Wind Pressure Humidity
00:00 +27°C° 1.9 mm 2 mps 744 mmHg 90%
01:00 +27°C° 1.9 mm 2 mps 743 mmHg 89%
02:00 +28°C° 1.9 mm 3 mps 743 mmHg 88%
03:00 +27°C° 0.3 mm 3 mps 743 mmHg 89%
04:00 +27°C° 0.3 mm 3 mps 743 mmHg 90%
05:00 +26°C° 0.3 mm 3 mps 743 mmHg 92%
06:00 +27°C° 0 mm 3 mps 744 mmHg 89%
07:00 +28°C° 0 mm 4 mps 744 mmHg 87%
08:00 +29°C° 0 mm 5 mps 745 mmHg 84%
09:00 +30°C° 0.1 mm 4 mps 745 mmHg 81%
10:00 +32°C° 0.1 mm 4 mps 744 mmHg 78%
11:00 +33°C° 0.1 mm 4 mps 744 mmHg 74%
12:00 +33°C° 0.2 mm 4 mps 743 mmHg 73%
13:00 +34°C° 0.2 mm 4 mps 743 mmHg 71%
14:00 +34°C° 0.2 mm 3 mps 742 mmHg 69%
15:00 +33°C° 1.3 mm 3 mps 742 mmHg 74%
16:00 +31°C° 1.3 mm 2 mps 742 mmHg 79%
17:00 +30°C° 1.3 mm 1 mps 742 mmHg 84%
18:00 +30°C° 0.7 mm 1 mps 743 mmHg 85%
19:00 +29°C° 0.7 mm 1 mps 743 mmHg 85%
20:00 +28°C° 0.7 mm 1 mps 744 mmHg 86%
21:00 +28°C° 0.2 mm 1 mps 744 mmHg 86%
22:00 +28°C° 0.2 mm 1 mps 744 mmHg 86%
23:00 +28°C° 0.2 mm 1 mps 744 mmHg 87%
Show more